www.pogodaiklimat.ru

Погода и климат >> Архив погоды >> Индонезия >> Палембанг


ПОГОДА в Палембанге

  • Прогноз погоды в Палембанге
  • Монитор погоды в Палембанге

АРХИВ ПОГОДЫ в Палембанге

Время (UTC), дата Ветер
(напр.,м/с)
 
Видим.   Явления Облачность Т
(С)
Тd
(С)
f
(%)
Тe
(С)
Тes
(С)
Комфортность P
(гПа)
Po
(гПа)
Тmin
(С)
Tmax
(С)
R
(мм)
R24
(мм)
S
(см)
15 10.09 ЮВ 4 8000 м дым 4/0
[Ci fib]
+26.4 +22.5 79 +35 +35 очень
душно
1013.9 1012.5
18 10.09 ЮВ 4 4000 м дым 4/0
[Ci fib]
+25.2 +22.5 85 +33 +33 очень
душно
1013.0 1011.5
21 10.09 Ю 2 3000 м дым 5/0
[Ac trans Ci fib]
+22.3 +21.0 92 +29 +29 очень
душно
1012.4 1010.9
00 11.09 Ю 3 1200 м дым 5/0
[Ci fib]
+22.2 +21.2 94 +29 +30 очень
душно
1014.5 1013.1 +20.3
03 11.09 Ю 3 10 км 4/1 300 м
[Cu hum Ci fib]
+30.3 +21.6 60 +39 +50 очень
душно
1014.8 1013.4
06 11.09 В 5 10 км 5/4 300 м
[Cu hum Ci fib]
+34.0 +20.1 44 +40 +47 очень
душно
1011.7 1010.3
09 11.09 В 4 8000 м дым 5/4 300 м
[Cu hum Ci fib]
+33.8 +19.7 44 +40 +42 очень
душно
1009.8 1008.5
12 11.09 ЮВ 5 5000 м дым 5/1 300 м
[Cu hum Ci fib]
+29.6 +19.5 55 +36 +36 очень
душно
1011.4 1010.0 +35.1
15 11.09 ЮВ 4 7000 м дым 5/1 300 м
[Sc Ci fib]
+26.8 +21.1 71 +34 +34 очень
душно
1013.6 1012.2
18 11.09 ЮВ 3 4000 м дым 5/0
[Ci fib]
+25.4 +21.7 80 +33 +33 очень
душно
1013.0 1011.5
21 11.09 штиль 0 2000 м дым 4/0
[Ci fib]
+24.0 +22.0 89 +31 +31 очень
душно
1012.7 1011.3
00 12.09 Ю 2 800 м дым 6/0
[Ci fib]
+24.2 +22.9 92 +32 +33 очень
душно
1014.9 1013.4 +22.2
03 12.09 Ю 5 10 км 6/5 300 м
[Sc Ci fib]
+30.1 +21.4 60 +38 +42 очень
душно
1015.4 1013.9
06 12.09 ЮВ 5 7000 м дым 6/3 300 м
[Cu hum Ac trans Ci fib]
+33.8 +19.9 44 +40 +46 очень
душно
1012.1 1010.7
09 12.09 В 4 10 км 6/1 300 м
[Cu hum Ac trans Ci fib]
+34.8 +17.6 36 +38 +41 очень
душно
1009.6 1008.2
12 12.09 В 3 10 км 6/3 300 м
[Cu hum Ci fib]
+30.1 +18.9 51 +35 +35 очень
душно
1011.1 1009.7 +35.0
15 12.09 В 3 5000 м дым 6/3 300 м
[Cu hum Ci fib]
+26.1 +21.4 75 +33 +33 очень
душно
1012.6 1011.2
18 12.09 В 2 7000 м дым 5/1 300 м
[Cu hum Ci fib]
+24.2 +22.3 89 +31 +31 очень
душно
1012.0 1010.6
21 12.09 Ю 2 500 м дым 5/3 300 м
[Cu hum Ci fib]
+22.6 +22.1 97 +30 +30 очень
душно
1012.3 1010.8
00 13.09 ЮВ 3 800 м туман 5/0
[Ci fib]
+23.0 +22.6 98 +32 +33 очень
душно
1013.4 1011.9 +22.1
03 13.09 ЮВ 6 8000 м дым {туман} 8/6 300 м
[Cu hum Ac trans Ci fib]
+30.1 +21.6 60 +38 +40 очень
душно
1014.2 1012.8
06 13.09 Ю 2 10 км {туман} 8/5 300 м
[Cu hum Ac trans Ci fib]
+33.3 +20.2 46 +40 +47 очень
душно
1011.1 1009.7
09 13.09 В 3 6000 м дым 8/4 300 м
[Cu hum Ac trans Ci fib]
+34.0 +19.8 43 +40 +42 очень
душно
1009.1 1007.7
12 13.09 ЮВ 5 10 км 6/3 300 м
[Cu hum Ac trans Ci fib]
+29.4 +22.5 66 +38 +38 очень
душно
1010.8 1009.4 +34.4
15 13.09 ЮВ 4 10 км 5/3 300 м
[Cu hum Ci fib]
+26.4 +22.2 78 +34 +34 очень
душно
1012.9 1011.5
18 13.09 Ю 4 6000 м дым 6/4 300 м
[Cu hum Ac trans Ci fib]
+25.1 +22.3 84 +33 +33 очень
душно
1011.7 1010.3
21 13.09 Ю 4 8000 м дым 5/3 300 м
[Cu hum Ac trans Ci fib]
+24.0 +20.9 83 +30 +30 очень
душно
1011.6 1010.2
00 14.09 Ю 5 10 км 6/1 300 м
[Cu hum Ac trans Ci fib]
+23.4 +18.5 74 +30 +30 очень
душно
1013.6 1012.1 +23.0
03 14.09 Ю 5 9000 м 6/1 150 м
[Sc Ci fib]
+29.1 +18.8 54 +34 +41 очень
душно
1014.7 1013.3
06 14.09 Ю 3 10 км 6/0
[Ci fib]
+32.7 +17.8 41 +37 +52 опасность
солнечного
удара
1011.2 1009.8
09 14.09 Ю 3 10 км 5/1 300 м
[Cu hum Ci fib]
+34.0 +16.9 36 +37 +41 очень
душно
1008.8 1007.4
12 14.09 ЮВ 7 7000 м дым 6/4 300 м
[Cu hum Ci fib]
+28.9 +18.9 55 +34 +34 очень
душно
1010.5 1009.1 +34.6
15 14.09 ЮВ 5 4000 м дым 6/3 300 м
[Cu hum Ci fib]
+26.2 +20.3 70 +32 +32 очень
душно
1012.3 1010.9
18 14.09 ЮВ 6 4000 м дым 5/3 300 м
[Cu hum Ci fib]
+25.2 +20.3 74 +31 +31 очень
душно
1011.6 1010.2
21 14.09 Ю 4 6000 м дым 5/3 300 м
[Sc Ci fib]
+22.7 +18.1 75 +28 +28 душно 1010.9 1009.5
00 15.09 Ю 2 7000 м дым 8/1 300 м
[Sc Ac trans Ci fib]
+22.1 +17.4 75 +27 +28 душно 1012.1 1010.6 +21.5
03 15.09 Ю 5 10 км 8/4 300 м
[Cu hum Ac trans Ci fib]
+29.9 +16.6 45 +33 +37 душно 1012.4 1011.0
06 15.09 В 6 10 км 5/3 300 м
[Cu hum Ci fib]
+33.0 +16.1 36 +36 +41 очень
душно
1009.7 1008.3
09 15.09 В 2 1500 м дым 6/3 300 м
[Cu hum Ci fib]
+32.8 +18.1 42 +37 +41 очень
душно
1007.6 1006.2
12 15.09 ЮВ 4 6000 м дым 5/0
[Ci fib]
+29.1 +20.4 59 +36 +36 очень
душно
1009.1 1007.7 +34.2
15 15.09 ЮВ 3 4000 м дым 5/0
[Ci fib]
+26.3 +21.3 74 +33 +33 очень
душно
1011.0 1009.6
18 15.09 В 3 3000 м дым 6/3 300 м
[Cu hum Ci fib]
+24.8 +21.6 82 +32 +32 очень
душно
1010.1 1008.7
21 15.09 ЮЗ 2 2000 м дым 8/4 300 м
[Cu hum Ci fib]
+23.3 +21.7 91 +32 +32 очень
душно
1010.0 1008.6
00 16.09 Ю 2 800 м дым 6/3 300 м
[Cu hum Ci fib]
+23.2 +21.8 92 +31 +32 очень
душно
1011.5 1010.1 +22.1
03 16.09 ЮВ 5 8000 м дым 8/5 300 м
[Cu hum Ci fib]
+29.8 +21.5 61 +38 +42 очень
душно
1012.3 1010.9
06 16.09 ЮВ 3 6000 м дым 6/3 300 м
[Cu hum Ci fib]
+33.0 +19.8 46 +39 +50 очень
душно
1009.1 1007.8
09 16.09 В 3 7000 м дым 8/3 300 м
[Cu hum Ac trans Ci fib]
+33.4 +18.8 42 +38 +40 очень
душно
1006.9 1005.6
15 16.09 ЮВ 4 5000 м дым 6/0
[Ac trans Ci fib]
+26.3 +21.3 74 +33 +33 очень
душно
1010.6 1009.2
18 16.09 ЮВ 3 6000 м дым 6/0
[Ci fib]
+25.1 +21.6 81 +32 +32 очень
душно
1010.2 1008.8
21 16.09 ЮЗ 2 2000 м дым 5/0
[Ci fib]
+23.7 +22.3 92 +31 +31 очень
душно
1010.6 1009.1
00 17.09 Ю 2 900 м дым 6/1 300 м
[Sc Ci fib]
+23.4 +22.1 92 +32 +33 очень
душно
1012.1 1010.7 +22.9
03 17.09 ЮВ 5 6000 м дым 8/6 300 м
[Cu hum Ac trans Ci fib]
+29.2 +22.5 67 +38 +41 очень
душно
1012.8 1011.4
06 17.09 ЮВ 4 2000 м дым 8/4 300 м
[Cu hum Ac trans Ci fib]
+34.4 +21.0 46 +42 +47 опасность
перегрева
1009.8 1008.3
09 17.09 В 3 3000 м дым 8/4 300 м
[Cu hum Ci fib]
+33.0 +20.5 48 +40 +42 очень
душно
1008.0 1006.7
12 17.09 ЮВ 4 3500 м дым 6/4 300 м
[Cu hum Ci fib]
+29.0 +21.5 64 +37 +37 очень
душно
1010.3 1008.9 +34.4

 

Местоположение метеостанции Палембанг (Индонезия): широта -2.90 долгота 104.70 высота над уровнем моря 10 м.

В архиве по умолчанию представлена погода в Палембанге за последнюю неделю. Архивные данные за месяц целиком и за предыдущие месяцы, начиная с января 2011 года, Вы можете получить, выбрав интересующий диапазон дат из раскрывающегося списка и нажав кнопку "Ввод!".


*Определитесь, кто Вы:
робот инопланетянин человек

Внимание! Время в таблицах - всемирное. Для получения местного времени необходимо прибавить поправку, которая равна 7 ч.

Смотрите также архив погоды в соседних городах и на ближайших метеорологических станциях:

Погода в Панкалпинанге (Индонезия) (178 км)
Погода в Джамби (Индонезия) (183 км)
Погода в Танджунгкаранге (Индонезия) (250 км)
Погода в Аэропорту Дабо (Индонезия) (269 км)
Погода в Бенкулу (Индонезия) (285 км)
Погода в Танджунгпандане (Индонезия) (339 км)
Погода на Керинчи (Индонезия) (371 км)
Погода в Аэропорту Япура (Индонезия) (390 км)
Погода в Серанге (Индонезия) (392 км)
Погода в Аэропорту Сукарно-Хатта (Индонезия) (418 км)

Пояснения к столбцам:

Ветер - указаны скорость ветра в м/с - средняя за 10 мин, порывы в срок и между сроками (в фигурных скобках) и направление, откуда дует ветер: С - северный, СВ - северо-восточный, В - восточный, ЮВ - юго-восточный, Ю - южный, ЮЗ - юго-западный, З - западный, СЗ - северо-западный.
Видимость - горизонтальная дальность видимости в метрах или километрах. При видимости от 1 до 10 км при отсутствии осадков обычно наблюдается дымка, при ухудшении видимости до 1 км и менее - туман. В сухую погоду видимость может ухудшаться дымом, пылью или мглою.
Явления - указаны атмосферные явления, наблюдавшиеся в срок или в последний час перед сроком; фигурными скобками обозначены явления, наблюдавшиеся между сроками (за 1-3 часа до срока); квадратными скобками обозначены град или гололедные отложения с указанием их диаметра в мм.
Облачность - указаны через наклонную черту общая и нижняя облачность в баллах и высота нижней границы облаков в метрах; квадратными скобками обозначены формы облаков: Ci - перистые, Cs - перисто-слоистые, Cc - перисто-кучевые, Ac - высококучевые, As - высокослоистые, Sc - слоисто-кучевые, Ns - слоисто-дождевые, Cu - кучевые, Cb - кучево-дождевые. Подробнее классификацию облаков см. в Атласе облаков (PDF).
T - Температура воздуха - температура, измеренная на высоте 2 м над землей.
Td - Температура точки росы - температура, при понижении до которой содержащийся в воздухе водяной пар достигнет насыщения.
f - Относительная влажность воздуха - влажноcть воздуха, измеренная на высоте 2 м над землей.
Te - Эффективная температура - температура, которую ощущает одетый по сезону человек в тени. Характеристика душности погоды. При расчете учитывается влияние влажности воздуха и скорости ветра на теплоощущения человека.
Tes - Эффективная температура на солнце - температура, которую ощущает человек, с поправкой на солнечный нагрев. Характеристика знойности погоды. Зависит от высоты солнца над горизонтом, облачности и скорости ветра. Ночью, в пасмурную погоду, а также при ветре 12 м/с и более поправка равна нулю.
P - Атмосферное давление - приведенное к уровню моря атмосферное давление.
Po - Атмосферное давление - измеренное на уровне метеостанции атмосферное давление.
Tmin - Минимальная температура - минимум температуры воздуха на высоте 2 м над землей.
Tmax - Максимальная температура - максимум температуры воздуха на высоте 2 м над землей.
R - Количество осадков - Количество выпавших осадков за период времени, мм. При наведении курсора мыши на число - период времени, за который выпало указанное количество осадков.
R24 - Количество осадков - Количество выпавших осадков за 24 часа, мм.
S - Снежный покров - Высота снежного покрова, см. При наведении курсора мыши на число - состояние снежного покрова и степень покрытия местности в баллах.